TimeMDT,TemperatureF,Dew PointF,Humidity,Sea Level PressureIn,VisibilityMPH,Wind Direction,Wind SpeedMPH,Gust SpeedMPH,PrecipitationIn,Events,Conditions,WindDirDegrees,DateUTC
12:15 AM,53.6,44.6,72,30.58,10.0,ENE,6.9,-,N/A,,Clear,60,2013-07-24 06:15:00
12:35 AM,53.6,42.8,67,30.58,10.0,ENE,5.8,-,N/A,,Clear,60,2013-07-24 06:35:00
12:54 AM,53.6,42.8,67,30.58,10.0,ENE,8.1,-,N/A,,Clear,60,2013-07-24 06:54:00
1:15 AM,53.6,44.6,72,30.57,10.0,ENE,12.7,-,N/A,,Clear,70,2013-07-24 07:15:00
1:34 AM,53.6,44.6,72,30.57,10.0,ENE,11.5,19.6,N/A,,Clear,70,2013-07-24 07:34:00
1:55 AM,53.6,44.6,72,30.56,10.0,ENE,9.2,-,N/A,,Clear,60,2013-07-24 07:55:00
2:15 AM,53.6,44.6,72,30.56,10.0,ENE,9.2,-,N/A,,Clear,60,2013-07-24 08:15:00
2:35 AM,53.6,46.4,77,30.56,10.0,ENE,9.2,-,N/A,,Clear,70,2013-07-24 08:35:00
2:55 AM,53.6,46.4,77,30.55,10.0,ENE,10.4,-,N/A,,Clear,70,2013-07-24 08:55:00
3:14 AM,53.6,46.4,77,30.55,10.0,ENE,8.1,-,N/A,,Clear,70,2013-07-24 09:14:00
3:35 AM,51.8,44.6,76,30.54,10.0,ENE,4.6,-,N/A,,Clear,60,2013-07-24 09:35:00
3:55 AM,55.4,42.8,63,30.54,10.0,Calm,Calm,-,N/A,,Clear,0,2013-07-24 09:55:00
4:15 AM,55.4,42.8,63,30.54,10.0,ESE,3.5,-,N/A,,Clear,120,2013-07-24 10:15:00
4:35 AM,57.2,42.8,59,30.54,10.0,East,3.5,-,N/A,,Clear,80,2013-07-24 10:35:00
4:55 AM,53.6,46.4,77,30.54,10.0,NE,5.8,-,N/A,,Clear,50,2013-07-24 10:55:00
5:15 AM,51.8,46.4,82,30.54,10.0,ENE,6.9,-,N/A,,Clear,70,2013-07-24 11:15:00
5:35 AM,50.0,46.4,87,30.55,10.0,ENE,9.2,-,N/A,,Scattered Clouds,60,2013-07-24 11:35:00
5:54 AM,51.8,50.0,94,30.56,0.8,ENE,8.1,-,N/A,Rain,Rain,70,2013-07-24 11:54:00
6:15 AM,51.8,51.8,100,30.56,0.5,East,9.2,-,N/A,,Drizzle,80,2013-07-24 12:15:00
6:34 AM,51.8,51.8,100,30.56,1.0,East,5.8,-,N/A,,Light Drizzle,80,2013-07-24 12:34:00
6:55 AM,51.8,51.8,100,30.56,0.2,ENE,6.9,-,N/A,Fog,Fog,70,2013-07-24 12:55:00
7:15 AM,51.8,51.8,100,30.56,0.8,ENE,6.9,-,N/A,,Overcast,70,2013-07-24 13:15:00
7:35 AM,53.6,51.8,94,30.56,1.0,ENE,8.1,-,N/A,,Overcast,60,2013-07-24 13:35:00
7:54 AM,53.6,51.8,94,30.57,1.0,ENE,6.9,-,N/A,,Overcast,60,2013-07-24 13:54:00
8:15 AM,53.6,51.8,94,30.58,5.0,ENE,6.9,-,N/A,,Overcast,70,2013-07-24 14:15:00
8:35 AM,53.6,51.8,94,30.58,2.0,ENE,9.2,-,N/A,,Overcast,70,2013-07-24 14:35:00
8:55 AM,53.6,51.8,94,30.58,2.5,East,9.2,-,N/A,,Overcast,80,2013-07-24 14:55:00
9:15 AM,53.6,51.8,94,30.58,1.8,ENE,8.1,-,N/A,,Overcast,70,2013-07-24 15:15:00
9:35 AM,57.2,51.8,82,30.58,10.0,ENE,5.8,-,N/A,,Overcast,70,2013-07-24 15:35:00
9:55 AM,57.2,51.8,82,30.58,10.0,ENE,8.1,-,N/A,,Overcast,70,2013-07-24 15:55:00
10:15 AM,57.2,51.8,82,30.58,10.0,ENE,6.9,-,N/A,,Overcast,60,2013-07-24 16:15:00
10:34 AM,59.0,51.8,77,30.59,10.0,East,6.9,-,N/A,,Overcast,90,2013-07-24 16:34:00
10:55 AM,62.6,53.6,72,30.59,10.0,East,9.2,-,N/A,,Mostly Cloudy,90,2013-07-24 16:55:00
11:15 AM,59.0,53.6,82,30.59,10.0,East,8.1,-,N/A,,Mostly Cloudy,90,2013-07-24 17:15:00
11:35 AM,62.6,53.6,72,30.58,10.0,East,9.2,-,N/A,,Overcast,80,2013-07-24 17:35:00
11:55 AM,62.6,53.6,72,30.58,10.0,East,10.4,-,N/A,,Overcast,90,2013-07-24 17:55:00
12:15 PM,59.0,53.6,82,30.58,10.0,ENE,8.1,-,N/A,Rain-Thunderstorm,Light Thunderstorms and Rain,60,2013-07-24 18:15:00
12:34 PM,59.0,53.6,82,30.59,7.0,ESE,4.6,-,N/A,Rain-Thunderstorm,Light Thunderstorms and Rain,110,2013-07-24 18:34:00
12:54 PM,55.4,50.0,82,30.58,2.5,North,4.6,-,N/A,Rain-Thunderstorm,Light Thunderstorms and Rain,10,2013-07-24 18:54:00
1:15 PM,53.6,48.2,82,30.60,10.0,ESE,8.1,-,N/A,Rain-Thunderstorm,Thunderstorms and Rain,120,2013-07-24 19:15:00
1:34 PM,51.8,39.2,62,30.58,5.0,ESE,4.6,18.4,N/A,Rain-Thunderstorm,Light Thunderstorms and Rain,120,2013-07-24 19:34:00
1:55 PM,55.4,48.2,77,30.58,10.0,ENE,4.6,-,N/A,Rain,Light Rain,70,2013-07-24 19:55:00
2:15 PM,57.2,46.4,67,30.56,10.0,NE,6.9,-,N/A,,Scattered Clouds,50,2013-07-24 20:15:00
2:35 PM,59.0,53.6,82,30.56,10.0,East,6.9,-,N/A,Thunderstorm,Thunderstorm,100,2013-07-24 20:35:00
2:55 PM,51.8,44.6,76,30.57,4.0,SSE,20.7,32.2,N/A,Rain-Thunderstorm,Thunderstorms and Rain,150,2013-07-24 20:55:00
3:15 PM,51.8,42.8,71,30.56,10.0,NE,9.2,21.9,N/A,Rain-Thunderstorm,Light Thunderstorms and Rain,50,2013-07-24 21:15:00
3:35 PM,59.0,46.4,63,30.56,10.0,ENE,9.2,-,N/A,,Scattered Clouds,60,2013-07-24 21:35:00
3:55 PM,59.0,44.6,59,30.55,10.0,NNE,9.2,-,N/A,,Scattered Clouds,30,2013-07-24 21:55:00
4:14 PM,60.8,42.8,52,30.54,10.0,NE,6.9,-,N/A,,Scattered Clouds,40,2013-07-24 22:14:00
4:35 PM,62.6,44.6,52,30.54,10.0,ENE,8.1,-,N/A,,Scattered Clouds,70,2013-07-24 22:35:00
4:55 PM,59.0,46.4,63,30.54,10.0,ENE,8.1,-,N/A,Rain-Thunderstorm,Thunderstorms and Rain,70,2013-07-24 22:55:00
5:15 PM,60.8,42.8,52,30.54,10.0,East,8.1,-,N/A,Thunderstorm,Thunderstorm,100,2013-07-24 23:15:00
5:35 PM,59.0,44.6,59,30.54,10.0,East,9.2,-,N/A,Thunderstorm,Clear,80,2013-07-24 23:35:00
5:54 PM,59.0,42.8,55,30.52,10.0,East,11.5,19.6,N/A,Thunderstorm,Thunderstorm,80,2013-07-24 23:54:00
6:14 PM,59.0,44.6,59,30.52,10.0,ESE,5.8,-,N/A,Thunderstorm,Thunderstorm,120,2013-07-25 00:14:00
6:35 PM,57.2,42.8,59,30.53,10.0,East,9.2,-,N/A,Thunderstorm,Thunderstorm,90,2013-07-25 00:35:00
6:54 PM,55.4,42.8,63,30.52,10.0,East,15.0,18.4,N/A,,Scattered Clouds,80,2013-07-25 00:54:00
7:15 PM,55.4,42.8,63,30.53,10.0,ESE,15.0,23.0,N/A,Thunderstorm,Thunderstorm,110,2013-07-25 01:15:00
7:35 PM,53.6,42.8,67,30.52,10.0,East,17.3,24.2,N/A,,Mostly Cloudy,90,2013-07-25 01:35:00
7:54 PM,53.6,42.8,67,30.54,10.0,East,12.7,19.6,N/A,,Overcast,90,2013-07-25 01:54:00
8:15 PM,53.6,51.8,94,30.54,7.0,East,10.4,19.6,N/A,Rain,Light Rain,80,2013-07-25 02:15:00
8:34 PM,53.6,51.8,94,30.54,4.0,ENE,8.1,-,N/A,,Light Drizzle,70,2013-07-25 02:34:00
8:55 PM,53.6,51.8,94,30.54,1.5,Calm,Calm,-,N/A,,Overcast,0,2013-07-25 02:55:00
9:14 PM,51.8,50.0,94,30.56,10.0,North,3.5,-,N/A,Thunderstorm,Mostly Cloudy,350,2013-07-25 03:14:00
9:35 PM,51.8,48.2,88,30.56,10.0,West,6.9,-,N/A,,Overcast,270,2013-07-25 03:35:00
9:55 PM,50.0,46.4,87,30.56,10.0,WSW,9.2,16.1,N/A,,Overcast,240,2013-07-25 03:55:00
10:14 PM,48.2,44.6,87,30.56,10.0,WSW,8.1,17.3,N/A,,Light Drizzle,250,2013-07-25 04:14:00
10:35 PM,50.0,46.4,87,30.56,7.0,SW,16.1,24.2,N/A,Rain,Rain,220,2013-07-25 04:35:00
10:55 PM,48.2,46.4,93,30.55,10.0,SW,11.5,23.0,N/A,,Mostly Cloudy,220,2013-07-25 04:55:00
11:15 PM,48.2,46.4,93,30.54,10.0,WSW,10.4,18.4,N/A,,Clear,240,2013-07-25 05:15:00
11:35 PM,48.2,44.6,87,30.54,10.0,SW,8.1,19.6,N/A,,Scattered Clouds,230,2013-07-25 05:35:00
11:54 PM,46.4,44.6,93,30.54,10.0,SW,9.2,-,N/A,Thunderstorm,Clear,230,2013-07-25 05:54:00